Location: Givhans Ferry State Park
(33.0284°N, 80.3868°W)
Time: 22:57:03
(UTC-04:00)

ACS3 Solar Sail - Visible Passes

Search period start: 07 June 2026 00:00
Search period end: 17 June 2026 00:00
Orbit: 879 x 951 km, 97.2° (Epoch: 7 June)

Date Brightness Start Highest point End Pass type
(mag) Time Alt. Az. Time Alt. Az. Time Alt. Az.
7 Jun 4.0 00:24:08 10° ENE 00:24:45 11° ENE 00:24:45 11° ENE visible
7 Jun 2.2 02:03:39 10° N 02:08:07 53° NNW 02:08:07 53° NNW visible
8 Jun 3.8 00:30:29 10° NE 00:31:56 14° ENE 00:31:56 14° ENE visible
8 Jun 2.3 02:10:47 10° N 02:15:19 49° NW 02:15:19 49° NW visible
9 Jun 3.7 00:36:58 10° NE 00:39:04 17° ENE 00:39:04 17° ENE visible
9 Jun 2.4 02:17:51 10° N 02:22:25 44° NW 02:22:25 44° NW visible
10 Jun 3.5 00:43:30 10° NE 00:46:06 20° ENE 00:46:06 20° ENE visible
10 Jun 2.6 02:24:54 10° N 02:29:27 38° NW 02:29:27 38° NW visible
11 Jun 3.3 00:50:03 10° NE 00:53:03 23° ENE 00:53:03 23° ENE visible
11 Jun 2.7 02:31:53 10° N 02:36:24 34° WNW 02:36:24 34° WNW visible
12 Jun 3.1 00:56:36 10° NNE 00:59:56 27° ENE 00:59:56 27° ENE visible
12 Jun 2.9 02:38:50 10° NNW 02:43:16 29° WNW 02:43:16 29° WNW visible
13 Jun 3.0 01:03:06 10° NNE 01:06:44 31° ENE 01:06:44 31° ENE visible
13 Jun 3.1 02:45:44 10° NNW 02:50:04 25° WNW 02:50:04 25° WNW visible
14 Jun 2.8 01:09:33 10° NNE 01:13:26 36° ENE 01:13:26 36° ENE visible
14 Jun 3.2 02:52:36 10° NNW 02:56:46 22° WNW 02:56:46 22° WNW visible
15 Jun 2.6 01:15:59 10° NNE 01:20:05 41° NE 01:20:05 41° NE visible
15 Jun 3.4 02:59:27 10° NNW 03:03:21 19° WNW 03:03:24 19° WNW visible
16 Jun 2.4 01:22:22 10° NNE 01:26:38 46° NE 01:26:38 46° NE visible
16 Jun 3.6 03:06:19 10° NNW 03:09:44 16° WNW 03:09:57 16° WNW visible
